Regional Weather Roundup
Issued by NWS

Home | Current Version | Previous Version | Text Only | Print | Product List | Glossary Off
Versions: 1 2 3 4 5 6 7 8 9 10 11 12 13 14 15 16 17 18 19 20 21 22 23 24 25 26 27 28 29 30 31 32 33 34 35 36 37 38 39 40 41 42 43 44 45 46 47 48 49 50

000
ASUS43 KMPX 210710
RWRMN
WEATHER ROUNDUP FOR MINNESOTA
NATIONAL WEATHER SERVICE TWIN CITIES/CHANHASSEN MN
200 AM CDT MON APR 21 2014


NOTE: "FAIR" INDICATES FEW OR NO CLOUDS BELOW 12,000 FEET WITH NO
SIGNIFICANT WEATHER AND/OR OBSTRUCTIONS TO VISIBILITY. N/A MEANS
CURRENT SKY AND/OR WEATHER CONDITIONS ARE NOT AVAILABLE.

MNZ060>063-068>070-210800-
   Twin Cities Metro

CITY           SKY/WX    TMP DP  RH WIND       PRES   REMARKS
TWIN CITIES    CLOUDY    58  55  90 E6        29.93F
ST PAUL        CLOUDY    57  54  89 SE3       29.94S
CRYSTAL        CLOUDY    60  52  74 S10       29.92S
BLAINE         MOCLDY    59  46  63 E9        29.92F
EDEN PRAIRIE   LGT RAIN  60  55  83 CALM      29.92F
LAKEVILLE      CLOUDY    52  52 100 E3        29.93F FOG
SOUTH ST PAUL  CLOUDY    60  55  82 CALM      29.93F
LAKE ELMO      CLOUDY    55  54  94 SE3       29.95F
$$
MNZ001>005-007-008-013>017-022>024-027-028-210800-
   Northwest Minnesota

CITY           SKY/WX    TMP DP  RH WIND       PRES   REMARKS
BEMIDJI        PTCLDY    52  31  44 W10       29.91R
HALLOCK        CLOUDY    43  39  87 NW10      29.87R
ROSEAU         MOCLDY    54  41  62 SW13      29.83S
WARROAD        PTCLDY    55  41  58 SW13G20   29.82S
THIEF RVR FALL MOCLDY    54  36  50 W10       29.89S
CROOKSTON      MOCLDY    50  39  66 W9        29.91S
FOSSTON        CLOUDY    50  34  53 CALM      29.92S
DETROIT LAKES  PTCLDY    54  34  47 NW8       29.95R
MOORHEAD       MOCLDY    54  34  47 CALM      29.95R
PARK RAPIDS    FAIR      48  35  60 W5        29.91R
$$
MNZ006-009>011-018-025>026-210800-
   North Central Minnesota

CITY           SKY/WX    TMP DP  RH WIND       PRES   REMARKS
BAUDETTE       MOCLDY    47  35  63 SW6       29.84S
FLAG ISLAND    MIX PCPN  39  34  81 SW12      29.78F
INTL FALLS     CLOUDY    46  30  53 S5        29.83F
WASKISH        PTCLDY    48  34  57 SW8       29.89R
BIG FORK       CLEAR     48  28  46 SW3       29.87S
LONGVILLE      MOCLDY    37  32  81 CALM      29.87F
GRAND RAPIDS   CLEAR     50  28  43 S14       29.89F
CRANE LAKE     PTCLDY    27  21  80 CALM      29.88F
ORR            PTCLDY    46  27  46 SE6       29.84F
COOK           PTCLDY    48  28  46 S5        29.88F
$$
MNZ012-019>021-037-210800-
   Northeast Minnesota

CITY           SKY/WX    TMP DP  RH WIND       PRES   REMARKS
DULUTH         CLEAR     47  29  49 S7        29.93F
ELY            MOCLDY    45  28  53 S6        29.90F
HIBBING        PTCLDY    33  28  81 CALM      29.90F
EVELETH        PTCLDY    32  30  93 CALM      29.92F
DULUTH HARBOR  CLEAR     34  30  86 CALM      29.94F
SILVER BAY     CLEAR     28  28 100 CALM      29.93F
GRAND MARAIS     N/A     32  29  88 NW3       29.96S
G MARAIS ARPRT CLEAR     30  25  80 CALM      29.95F
$$
MNZ029>031-032-039>041-046>048-054>057-064-210800-
   West Central Minnesota

CITY           SKY/WX    TMP DP  RH WIND       PRES   REMARKS
FERGUS FALLS   CLEAR     54  34  47 W6        29.91F
WHEATON        PTCLDY    59  39  47 W5        29.97R
MORRIS         MOCLDY    52  37  58 S9        29.89F
ALEXANDRIA     MOCLDY    55  36  48 S10       29.91S
ELBOW LAKE     FAIR      54  37  52 W8        29.95R
WADENA         MOCLDY    54  36  50 W14G25    29.94R
GLENWOOD       MOCLDY    52  37  58 SE9       29.91F
APPLETON       MOCLDY    55  41  58 E3        29.90R
BENSON         MOCLDY    54  37  54 SE3       29.90F
ORTONVILLE     MOCLDY    50  37  62 CALM      29.91S
MADISON        CLOUDY    55  45  67 SE6       29.90S
WILLMAR        MOCLDY    57  43  58 SE6       29.92S
$$
MNZ033>034-036-042>043-049>051-058-059-210800-
   Central Minnesota

CITY           SKY/WX    TMP DP  RH WIND       PRES   REMARKS
ST CLOUD       MOCLDY    57  32  38 E6        29.90F
SAUK CENTRE    FAIR      48  38  68 S5        29.91S
PAYNESVILLE    MOCLDY    54  37  52 CALM      29.91F
AITKIN         PTCLDY    52  32  46 S7        29.88F
PINE RIVER     MOCLDY    46  34  61 SE5       29.91F
BRAINERD       MOCLDY    59  32  36 SE7       29.89F
STAPLES        PTCLDY    52  34  50 S6        29.88F
LONG PRAIRIE   MOCLDY    52  39  62 SE7       29.91F
LITTLE FALLS   MOCLDY    52  34  50 CALM      29.90F
LITCHFIELD     MOCLDY    54  48  82 SE6       29.91F THUNDER
BUFFALO        CLOUDY    55  37  49 E8        29.92F
MAPLE LAKE     CLOUDY    56  38  51 E3        29.92F
$$
MNZ037-044-045-052-053-210800-
   East Central Minnesota

CITY           SKY/WX    TMP DP  RH WIND       PRES   REMARKS
PRINCETON      MOCLDY    52  37  58 E3        29.92F
MORA           CLEAR     37  34  87 CALM      29.93F
CAMBRIDGE      MOCLDY    48  36  61 CALM      29.90F
RUSH CITY      MOCLDY    43  36  78 CALM      29.93F
HINCKLEY       FAIR      46  32  57 CALM      29.93F
CLOQUET        CLEAR     45  30  57 CALM      29.93F
MCGREGOR       PTCLDY    50  32  50 SE7       29.91F
$$
MNZ071>073-080-081-089-090-097-098-210800-
   Southwest Minnesota

CITY           SKY/WX    TMP DP  RH WIND       PRES   REMARKS
MONTEVIDEO     MOCLDY    54  45  71 SE7       29.91S
GRANITE FALLS  PTCLDY    56  49  78 E7        29.90F
CANBY          MOCLDY    51  48  89 NW3       29.91R
MARSHALL       PTCLDY    59  52  77 SE9       29.88S
REDWOOD FALLS  MOCLDY    58  53  84 SE9       29.89F
OLIVIA         PTCLDY    55  50  82 E5        29.89F
PIPESTONE      PTCLDY    57  48  72 S6        29.89R
WINDOM         MOCLDY    57  54  88 S3        29.91S
WORTHINGTON    MOCLDY    61  48  63 S10       29.93S
JACKSON        CLOUDY    61  52  72 SE8       29.91S
TRACY          PTCLDY    57  54  89 CALM      29.89S
SLAYTON        PTCLDY    55  50  84 SE8       29.91S
$$
MNZ065>067-074>077-082>085-091>093-210800-
   South Central Minnesota

CITY           SKY/WX    TMP DP  RH WIND       PRES   REMARKS
MANKATO        CLOUDY    57  54  88 SE7       29.91F
NEW ULM        MOCLDY    59  57  94 SE7       29.90F
ST JAMES       CLOUDY    57  54  88 SE6       29.91F
FAIRMONT       CLOUDY    57  52  82 SE7       29.93F
GLENCOE        CLOUDY    55  50  82 CALM      29.91F
FARIBAULT      CLOUDY    63  54  72 S7        29.92F
OWATONNA       CLOUDY    61  55  82 S12G18    29.93F
WASECA         CLOUDY    59  54  82 SE7       29.93F
ALBERT LEA     LGT RAIN  61  57  88 SE8       29.93F
$$
MNZ078>079-086>088-094>096-210800-
   Southeast Minnesota

CITY           SKY/WX    TMP DP  RH WIND       PRES   REMARKS
ROCHESTER      RAIN      58  55  90 SW13      29.98S FOG
RED WING       CLOUDY    55  54  94 CALM      29.94F
STANTON        CLOUDY    60  55  81 S9        29.91F
DODGE CENTER   LGT RAIN  61  59  94 S12       29.95S
WINONA           N/A    N/A N/A N/A MISG        N/A
AUSTIN         DRIZZLE   61  57  88 CALM      29.96S
PRESTON        LGT RAIN  58  54  86 SW7       29.97F
$$
ABBREVIATIONS USED IN REMARKS
   TC - TEMPERATURES IN CELSIUS
  WCI - WIND CHILL INDEX
   HX - HEAT INDEX
  VSB - VISIBILITY
$$



USA.gov is the U.S. government's official web portal to all federal, state and local government web resources and services.